Terminal Aerodrome Forecast
Issued by NWS Pueblo, CO

Home | Current Version | Previous Version | Text Only | Print | Product List | Glossary On
Versions: 1 2 3 4 5 6 7 8 9 10 11 12 13
000
FTUS45 KPUB 022340
TAFPUB
TAF
KPUB 022340Z 0300/0324 13006KT P6SM VCSH SCT040 OVC080
     FM030200 VRB05KT P6SM BKN040
     FM030900 VRB06KT P6SM SCT100 SCT200
     FM031600 VRB06KT P6SM FEW200=

USA.gov is the U.S. government's official web portal to all federal, state and local government web resources and services.